This demonstration page uses our WeatherBlox Daily Observations layout. Learn more.

Left ArrowRight Arrow

38.20091, -84.87328

Hourly Observations for September 28, 2016

Temp ( °F °C ) Dew Point ( °F °C ) Humidity (%) Winds ( mph kmh ) Pressure ( in mb ) Visibility ( mi km ) Precip ( " mm )
12:53 am 00:53 Clear 56 13.3 45 7.2 67 67 SSW 5 7 29.89 1012 10 16 0.00 0.00
1:53 am 01:53 Clear 55 12.8 45 7.2 69 69 SSW 6 9 29.88 1012 10 16 0.00 0.00
2:53 am 02:53 Clear 55 12.8 45 7.2 69 69 SSW 6 9 29.88 1012 10 16 0.00 0.00
3:53 am 03:53 Clear 56 13.3 45 7.2 67 67 S 6 9 29.86 1011 10 16 0.00 0.00
4:53 am 04:53 Mostly Clear 56 13.3 45 7.2 67 67 S 7 11 29.85 1011 10 16 0.00 0.00
5:53 am 05:53 Clear 56 13.3 45 7.2 67 67 S 6 9 29.85 1011 10 16 0.00 0.00
6:53 am 06:53 Partly Cloudy 57 13.9 45 7.2 64 64 S 7 11 29.84 1011 10 16 0.00 0.00
7:53 am 07:53 Mostly Cloudy 59 15 46 7.8 62 62 S 8 13 29.84 1010 10 16 0.00 0.00
8:53 am 08:53 Mostly Cloudy 61 16.1 46 7.8 58 58 SSW 9 15 29.83 1010 10 16 0.00 0.00
9:53 am 09:53 Mostly Cloudy 65 18.3 47 8.3 52 52 SSW 12 19 29.82 1010 10 16 0.00 0.00
10:53 am 10:53 Cloudy 65 18.3 48 8.9 54 54 SSW 12 19 29.85 1011 10 16 0.00 0.00
11:01 am 11:01 Cloudy with Thunderstorms 66 18.9 48 8.9 52 52 SSW 6 9 29.83 1010 10 16 0.00 0.00
11:22 am 11:22 Mostly Cloudy 68 20 49 9.4 51 51 S 12 19 29.80 1009 10 16 0.00 0.00
11:53 am 11:53 Partly Cloudy 71 21.7 49 9.4 46 46 S 13 20 29.80 1009 10 16 0.00 0.00
12:53 pm 12:53 Cloudy 70 21.1 49 9.4 47 47 W 8 13 29.83 1010 10 16 0.00 0.00
1:53 pm 13:53 Cloudy 67 19.4 52 11.1 59 59 NNW 7 11 29.83 1010 10 16 0.00 0.00
2:53 pm 14:53 Cloudy with Heavy Rain 60 15.6 55 12.8 84 84 NW 9 15 29.85 1011 3 4 0.06 1.52
3:06 pm 15:06 Cloudy with Heavy Rain 59 15 55 12.8 87 87 WNW 6 9 29.85 1011 1 2 0.11 2.79
3:53 pm 15:53 Cloudy with Rain 59 15 56 13.3 90 90 W 6 9 29.86 1011 2 3 0.34 8.64
4:10 pm 16:10 Cloudy with Heavy Rain 59 15 56 13.3 90 90 VRB 5 7 29.88 1012 2 3 0.06 1.52
4:20 pm 16:20 Cloudy with Rain 59 15 56 13.3 90 90 VRB 3 6 29.88 1012 3 4 0.08 2.03
4:41 pm 16:41 Cloudy with Light Rain 59 15 56 13.3 90 90 S 3 6 29.85 1011 6 10 0.13 3.30
4:53 pm 16:53 Cloudy with Rain 59 15 56 13.3 90 90 SSE 3 6 29.85 1011 6 10 0.14 3.56
5:53 pm 17:53 Mostly Cloudy 61 16.1 57 13.9 87 87 SW 8 13 29.88 1012 10 16 0.01 0.25
6:03 pm 18:03 Mostly Cloudy 61 16.1 57 13.9 87 87 WSW 6 9 29.88 1012 10 16 0.00 0.00
6:19 pm 18:19 Partly Cloudy 61 16.1 57 13.9 87 87 SW 7 11 29.88 1012 10 16 0.00 0.00
6:53 pm 18:53 Mostly Sunny 60 15.6 56 13.3 86 86 WSW 3 6 29.90 1012 10 16 0.00 0.00
7:31 pm 19:31 Mostly Cloudy 59 15 56 13.3 90 90 SSW 6 9 29.91 1013 10 16 0.00 0.00
7:42 pm 19:42 Mostly Cloudy 59 15 56 13.3 90 90 SW 3 6 29.91 1013 10 16 0.00 0.00
7:53 pm 19:53 Mostly Cloudy 59 15 56 13.3 90 90 WSW 3 6 29.91 1013 10 16 0.00 0.00
8:53 pm 20:53 Mostly Cloudy 57 13.9 52 11.1 83 83 WNW 3 6 29.95 1014 10 16 0.00 0.00
9:53 pm 21:53 Cloudy 56 13.3 51 10.6 84 84 Calm 29.96 1015 10 16 0.00 0.00
10:53 pm 22:53 Cloudy 56 13.3 51 10.6 84 84 Calm 29.97 1015 10 16 0.00 0.00
11:53 pm 23:53 Mostly Cloudy 54 12.2 51 10.6 90 90 W 5 7 29.97 1015 10 16 0.00 0.00

Powered by AerisWeather